Location: Audinghen
(50.8518°N, 1.6129°E)
Time: 10:41:40
(UTC+00:00)

Cosmos 1680 Rocket - Pass Details

Date: 07 August 2020
Orbit: 760 x 780 km, 74.1° (Epoch: 20 September)

Event Time Altitude Azimuth Distance (km) Brightness Sun altitude
Rises 02:09:22 0° 335° (NNW) 3,249 7.2 -17.0°
Reaches altitude 10° 02:11:45 10° 335° (NNW) 2,315 6.4 -16.8°
Maximum altitude 02:17:01 85° 248° (WSW) 774 3.4 -16.4°
Drops below altitude 10° 02:22:13 10° 160° (SSE) 2,290 5.6 -15.9°
Enters shadow 02:22:54 - 160° (SSE) 2,556 5.9 -15.8°
